Sarasota, FL

5:14 AM EDT on October 15, 2019 (GMT -0400)
Sarasota-bradenton

Weather History for KSRQ - August, 2019

Change the Weather History Date:

Thursday, August 22, 2019

  Actual Average Record
Temperature  
Mean Temperature 84 °F 82 °F  
Max Temperature 93 °F 90 °F 97 °F (1919)
Min Temperature 75 °F 74 °F 65 °F (1973)
Degree Days  
Heating Degree Days 0 0  
Month to date heating degree days 0 0  
Since 1 June heating degree days 0 0  
Since 1 July heating degree days 0 0  
Cooling Degree Days 20 17  
Month to date cooling degree days 401 374  
Year to date cooling degree days 2672 2136  
Since 1 June cooling degree days 1515 1385  
Growing Degree Days 34 (Base 50)    
Moisture  
Dew Point 74 °F    
Average Humidity 74    
Maximum Humidity 100    
Minimum Humidity 52    
Precipitation  
Precipitation 0.00 in 0.32 in 1.37 in (1956)
Month to date precipitation 12.42 6.52  
Year to date precipitation 40.95 35.71  
Sea Level Pressure  
Sea Level Pressure 30.00 in    
Wind  
Wind Speed 5 mph ()    
Max Wind Speed 20 mph    
Max Gust Speed 25 mph    
Visibility 10.0 miles    
Events Thunderstorm    
T = Trace of Precipitation, MM = Missing Value Source: Averaged Metar Reports

Daily Weather History Graph

Daily Weather History Graph

Search for Another Location

Airport or City:

Astronomy

Aug. 22, 2019 Rise Set
Actual Time 7:04 AM EDT 8:01 PM EDT
Civil Twilight 6:40 AM EDT 8:25 PM EDT
Nautical Twilight 6:11 AM EDT 8:53 PM EDT
Astronomical Twilight 5:42 AM EDT 9:22 PM EDT
Moon No Moon Rise 1:04 PM EDT (8/22)
Length of Visible Light 13h 45m
Length of Day
12h 56m
Waning Gibbous, 60% of the Moon is Illuminated
Aug 22
Waning Gibbous
Aug 23
Last Quarter
Aug 30
New
Sep 5
First Quarter
Sep 14
Full

Hourly Weather History & Observations

Time (EDT) Temp. Heat Index Dew Point Humidity Pressure Visibility Wind Dir Wind Speed Gust Speed Precip Events Conditions
12:53 AM 78.1 °F - 77.0 °F 96% 30.05 in 10.0 mi ENE 4.6 mph - 0.00 in   Clear
1:53 AM 78.1 °F - 75.9 °F 93% 30.04 in 10.0 mi Calm Calm - N/A   Clear
2:53 AM 77.0 °F - 75.9 °F 96% 30.02 in 10.0 mi Calm Calm - N/A   Clear
3:53 AM 77.0 °F - 75.0 °F 94% 30.01 in 10.0 mi East 3.5 mph - N/A   Clear
4:53 AM 77.0 °F - 75.0 °F 94% 30.00 in 10.0 mi East 5.8 mph - N/A   Clear
5:53 AM 77.0 °F - 75.0 °F 94% 30.01 in 10.0 mi East 4.6 mph - N/A   Clear
6:53 AM 75.9 °F - 75.0 °F 97% 30.01 in 10.0 mi East 5.8 mph - N/A   Clear
8:53 AM 81.0 °F 86.7 °F 75.0 °F 82% 30.05 in 10.0 mi ESE 5.8 mph - N/A   Clear
9:53 AM 84.0 °F 91.9 °F 75.0 °F 74% 30.05 in 10.0 mi ESE 6.9 mph - N/A   Clear
10:53 AM 86.0 °F 92.2 °F 72.0 °F 63% 30.05 in 10.0 mi SE 4.6 mph - N/A   Clear
11:53 AM 88.0 °F 95.6 °F 73.0 °F 61% 30.05 in 10.0 mi Variable 5.8 mph - N/A   Clear
12:53 PM 90.0 °F 97.9 °F 73.0 °F 57% 30.04 in 10.0 mi East 8.1 mph - N/A   Mostly Cloudy
1:53 PM 91.9 °F 100.7 °F 73.0 °F 54% 30.02 in 10.0 mi North 4.6 mph - N/A   Scattered Clouds
2:53 PM 91.9 °F 100.7 °F 73.0 °F 54% 29.99 in 10.0 mi Variable 4.6 mph - N/A   Scattered Clouds
3:53 PM 90.0 °F 96.9 °F 72.0 °F 55% 29.97 in 10.0 mi ENE 5.8 mph - N/A   Mostly Cloudy
4:53 PM 91.0 °F 97.6 °F 71.1 °F 52% 29.95 in 10.0 mi NE 4.6 mph - N/A   Clear
5:53 PM 88.0 °F 97.5 °F 75.0 °F 65% 29.95 in 10.0 mi East 15.0 mph - N/A   Scattered Clouds
6:08 PM 87.1 °F 95.4 °F 73.9 °F 65% 29.95 in 10.0 mi East 9.2 mph - N/A Thunderstorm Scattered Clouds
6:19 PM 88.0 °F 96.5 °F 73.9 °F 63% 29.95 in 10.0 mi East 11.5 mph - N/A   Partly Cloudy
6:53 PM 88.0 °F 96.5 °F 73.9 °F 63% 29.96 in 10.0 mi ESE 8.1 mph - N/A   Mostly Cloudy
7:53 PM 86.0 °F 93.0 °F 73.0 °F 65% 29.96 in 10.0 mi East 9.2 mph - N/A   Clear
8:53 PM 84.0 °F 91.2 °F 73.9 °F 72% 29.99 in 10.0 mi ESE 9.2 mph - N/A   Clear
9:53 PM 82.0 °F 87.9 °F 73.9 °F 76% 30.00 in 10.0 mi East 6.9 mph - N/A   Clear
10:53 PM 82.0 °F 87.4 °F 73.0 °F 74% 30.02 in 10.0 mi ESE 5.8 mph - N/A   Clear
11:53 PM 81.0 °F 86.2 °F 73.9 °F 79% 30.01 in 10.0 mi East 4.6 mph - N/A   Clear